Overview Statistics Trail Chart Weather Telemetry Raw packets
 

This is the latest recevied weather packets stored in our database for station/object N8TWM-13. If no packets are shown the sender has not sent any weather packets the latest 10 day(s).

<< 101 102 103 104 105 106 107 >>
Time Temp. Humidity Pressure Rain* Wind** Luminosity Snow
1787848325 27.22° C 70% 1015.8 hPa 0 mm - 274 W/m² -
1787848020 26.67° C 67% 1015.7 hPa 0 mm - 669 W/m² -
1787847720 25.56° C 71% 1015.8 hPa 0 mm - 755 W/m² -
1787847415 26.11° C 70% 1015.7 hPa 0 mm - 172 W/m² -
1787847110 26.11° C 72% 1015.7 hPa 0 mm - 718 W/m² -
1787846806 26.11° C 71% 1015.9 hPa 0 mm - 745 W/m² -
1787846501 25° C 73% 1015.9 hPa 0 mm - 699 W/m² -
1787846197 25.56° C 72% 1015.8 hPa 0 mm - 174 W/m² -
1787845892 25.56° C 72% 1015.9 hPa 0 mm - 273 W/m² -
1787845587 26.11° C 71% 1015.7 hPa 0 mm - 267 W/m² -
1787845282 26.11° C 69% 1015.9 hPa 0 mm - 240 W/m² -
1787844978 26.67° C 68% 1015.7 hPa 0 mm - 799 W/m² -
1787844673 26.11° C 69% 1015.8 hPa 0 mm - 674 W/m² -
1787844367 25.56° C 71% 1015.6 hPa 0 mm - 750 W/m² -
1787844067 25° C 72% 1015.8 hPa 0 mm - 734 W/m² -
1787843762 25° C 73% 1015.8 hPa 0 mm - 450 W/m² -
1787843456 25° C 73% 1015.7 hPa 0 mm - 235 W/m² -
1787843153 25.56° C 72% 1015.7 hPa 0 mm - 309 W/m² -
1787842848 25.56° C 71% 1015.8 hPa 0 mm - 286 W/m² -
1787842543 25° C 73% 1015.8 hPa 0 mm - 190 W/m² -
1787842242 25° C 72% 1015.4 hPa 0 mm - 213 W/m² -
1787841937 25.56° C 72% 1015.6 hPa 0 mm - 212 W/m² -
1787841633 25° C 74% 1015.5 hPa 0 mm - 636 W/m² -
1787841332 25° C 74% 1015.2 hPa 0 mm - 594 W/m² -
1787841027 24.44° C 75% 1015.4 hPa 0 mm - 584 W/m² -

* Rain latest hour (hover to see other rain measurements)
** Current wind speed in m/s (hover to see current wind gust speed)